Location: Vancouver
(49.2500°N, 123.1330°W)
Time: 13:39:00
(UTC-07:00)

S-56A Canister/Altair - Visible Passes

Search period start: 27 September 2016 00:00
Search period end: 07 October 2016 00:00
Orbit: 640 x 2494 km, 38.9° (Epoch: 26 September)

Date Brightness Start Highest point End Pass type
(mag) Time Alt. Az. Time Alt. Az. Time Alt. Az.
27 Sep 9.7 20:28:50 10° WSW 20:36:07 40° S 20:43:33 19° SE visible
27 Sep 10.4 22:32:45 10° WSW 22:40:21 26° SSW 22:40:58 26° SSW visible
28 Sep 9.6 19:56:46 10° WSW 20:03:34 40° S 20:12:41 12° SE visible
28 Sep 10.3 22:00:24 10° WSW 22:07:41 27° SSW 22:10:07 25° S visible
29 Sep 9.5 19:24:43 10° WSW 19:31:04 39° S 19:40:17 10° ESE visible
29 Sep 10.2 21:28:07 10° WSW 21:35:03 28° SSW 21:39:21 22° S visible
29 Sep 11.1 23:35:56 10° SW 23:36:48 11° SW 23:36:48 11° SW visible
30 Sep 10.1 20:55:54 10° WSW 21:02:29 28° SSW 21:08:39 17° SSE visible
30 Sep 11.0 23:02:38 10° WSW 23:06:06 12° SW 23:06:06 12° SW visible
01 Oct 10.0 20:23:44 10° WSW 20:29:58 28° SSW 20:38:02 11° SSE visible
01 Oct 10.9 22:29:41 10° WSW 22:33:48 13° SW 22:35:29 13° SSW visible
02 Oct 10.0 19:51:38 10° WSW 19:57:29 29° SSW 20:05:32 10° SE visible
02 Oct 10.8 21:57:00 10° WSW 22:01:16 14° SSW 22:04:58 12° S visible
03 Oct 9.9 19:19:34 10° WSW 19:25:04 29° SSW 19:32:37 10° SE visible
03 Oct 10.8 21:24:27 10° WSW 21:28:45 15° SSW 21:33:51 10° S visible
04 Oct 10.7 20:52:02 10° WSW 20:56:17 15° SSW 21:01:23 10° S visible
05 Oct 10.6 20:19:43 10° WSW 20:23:51 16° SSW 20:28:51 10° S visible
06 Oct 10.5 19:47:28 10° WSW 19:51:27 16° SSW 19:56:19 10° S visible
